Location: Narragansett
(41.4496°N, 71.4488°W)
Time: 04:38:30
(UTC+00:00)

Nauka - Pass Details

Date: 19 September 2021
Orbit: 417 x 423 km, 51.6° (Epoch: 19 October)

Event Time Altitude Azimuth Distance (km) Brightness Sun altitude
Rises 00:58:00 0° 267° (W) 2,357 ? -24.1°
Reaches altitude 10° 01:00:20 10° 281° (W) 1,497 ? -24.5°
Maximum altitude 01:03:11 25° 339° (NNW) 894 ? -25.0°
Enters shadow 01:03:15 25° 341° (NNW) 894 ? -25.0°
